Weather in Lvy

Russia / Yaroslavl Oblast     57°08′43″N   39°20′25″E
temp.,
°C
wind,
m/s
gust,
m/s
humid.,
%
clouds,
%
prec.,
mm/h
press.,
hPa
HPBL,
m
6 may, thu
thu600:00+6ssw369881 0.2 1007132
03:00+5s229613 0.2 100835
06:00+6se379895 0.0 1006197
09:00+12s61182100 0.0 1005512
12:00+15s91568100 0.0 10041422
15:00+15s11176960 0.3 10031837
18:00+13ssw10176999 0.3 10021367
21:00+9sw81289100 1.0 1004952
7 may, fri
fri700:00+6sw5128959 0.3 1006560
03:00+6sw5119084 0.3 1007548
06:00+5ssw5119114 0.0 1009473
09:00+8sw79688 0.0 10101143
12:00+12wsw7104695 0.0 10112454
15:00+13sw6104174 0.0 10112546
18:00+11ssw611685 0.4 10111288
21:00+8ssw398161 0.6 1013178
8 may, sat
sat800:00+7s378363 0.0 1012128
03:00+7sse41579100 0.0 1012387
06:00+8sse61567100 0.0 1010566
09:00+11sse81568100 0.0 1008928
12:00+13sse81475100 0.3 10061629
15:00+10se91689100 3.2 10041178
18:00+10sse61396100 0.4 1002850
21:00+9wsw71289100 2.5 1002816
9 may, sun
sun900:00+6sw61086100 1.4 1003762
03:00+4ssw61287100 1.4 1004806
06:00+5ssw71382100 0.0 10051206
09:00+4wsw71195100 0.3 1007946
12:00+6w61182100 0.3 10111075
15:00+8wnw51170100 0.4 10141645
18:00+10nnw475797 0.0 1017595
21:00+5nw23785 0.1 102031
10 may, mon
mon1000:00+3nw34850 0.0 102243
03:00+1nw33760 0.0 102529
06:00+3nnw12725 0.0 102784
09:00+9ene12535 0.0 1027480
12:00+13ne11415 0.0 10271171
15:00+14ese123930 0.0 10271395
18:00+13ese225430 0.0 1027268
21:00+8se22590 0.0 102911